Regional Weather Roundup
Issued by NWS

Home | Current Version | Previous Version | Text Only | Print | Product List | Glossary Off
Versions: 1 2 3 4 5 6 7 8 9 10 11 12 13 14 15 16 17 18 19 20 21 22 23 24 25 26 27 28 29 30 31 32 33 34 35 36 37 38 39 40 41 42 43 44 45 46 47 48 49 50

000
ASUS43 KFSD 291910
RWRSD

WEATHER ROUNDUP FOR SOUTH DAKOTA
NATIONAL WEATHER SERVICE SIOUX FALLS SD
200 PM CDT FRI APR 29 2016

NOTE: "FAIR" INDICATES FEW OR NO CLOUDS BELOW 12,000 FEET WITH NO
SIGNIFICANT WEATHER AND/OR OBSTRUCTIONS TO VISIBILITY.


SDZ001>005-009-010-012>017-292000-
NORTHWEST AND NORTH CENTRAL SOUTH DAKOTA

CITY           SKY/WX    TMP DP  RH WIND       PRES   REMARKS
BUFFALO          N/A     48  31  51 E17       30.02F
FAITH            N/A     52  34  50 E9        30.07F
MOBRIDGE       SUNNY     60  36  40 E12       30.07F
$$

SDZ012>016-024>037-041>051-057-063-072>074-292000-
SOUTHWEST AND SOUTH CENTRAL SOUTH DAKOTA

CITY           SKY/WX    TMP DP  RH WIND       PRES   REMARKS
RAPID CTY ARPT CLOUDY    43  35  73 NE8       30.08S
PIERRE         CLOUDY    51  36  56 E16       30.10R
CUSTER         FOG       34  31  88 NE10      30.02R VSB 1/2 WCI  26
ELLSWORTH AFB  CLOUDY    43  36  75 E7        30.07
PHILIP         CLOUDY    50  35  56 E17G24    30.09R
PINE RIDGE     CLOUDY    42  35  76 E10       30.06R
WINNER         CLOUDY    42  37  82 E12       30.11R
$$

SDZ004>011-016>023-039-040-292000-
NORTHEAST SOUTH DAKOTA

CITY           SKY/WX    TMP DP  RH WIND       PRES   REMARKS
ABERDEEN       MOSUNNY   59  36  42 E9G20     30.11F
WATERTOWN      MOSUNNY   53  38  56 E12       30.11F
BROOKINGS      CLOUDY    47  38  71 E13G20    30.12F
SISSETON         N/A     58  37  45 E9        30.12F
$$

SDZ017-020-022-023-036>040-048>070-292000-
SOUTHEAST SOUTH DAKOTA

CITY           SKY/WX    TMP DP  RH WIND       PRES   REMARKS
SIOUX FALLS    CLOUDY    50  39  66 SE18G24   30.12F
HURON          PTSUNNY   53  39  59 E14G24    30.11S
CHAMBERLAIN    CLOUDY    47  40  78 E12G18    30.12R
MITCHELL       CLOUDY    51  41  68 SE17      30.12S
YANKTON        CLOUDY    43  39  87 E12       30.12R
$$

ABBREVIATIONS USED IN REMARKS
   TC - TEMPERATURE IN CELSIUS
  WCI - WIND CHILL INDEX
   HX - HEAT INDEX
  VSB - VISIBILITY





USA.gov is the U.S. government's official web portal to all federal, state and local government web resources and services.